FW1757 Weather Reports


time (UTC)temp
F
wind
direction
speed
knots
gust
knots
rain 1hr
in
rain 24hr
in
rain mn
in
humidity
%
barometer
mb
20260507192026 65 294 0.0 0.0 0.00 0.00 0.00 44 1015.7
20260507191525 65 277 0.0 0.0 0.00 0.00 0.00 43 1015.8
20260507191024 65 252 0.0 0.0 0.00 0.00 0.00 44 1015.8
20260507190523 64 320 0.0 0.0 0.00 0.00 0.00 44 1015.8
20260507190022 64 262 0.0 0.0 0.00 0.00 0.00 44 1015.8
20260507185620 63 244 0.0 0.0 0.00 0.00 0.00 46 1015.9
20260507185021 63 271 0.0 0.0 0.00 0.00 0.00 46 1015.9
20260507184519 63 286 0.0 0.0 0.00 0.00 0.00 46 1015.8
20260507184020 63 294 0.0 0.0 0.00 0.00 0.00 43 1016.0
20260507183516 63 327 0.0 0.0 0.00 0.00 0.00 46 1016.0
20260507183015 62 333 0.0 0.0 0.00 0.00 0.00 48 1016.1
20260507182515 62 292 0.0 0.0 0.00 0.00 0.00 47 1016.1
20260507182015 62 298 0.0 0.0 0.00 0.00 0.00 46 1016.0
20260507181514 62 309 0.0 0.0 0.00 0.00 0.00 47 1016.0
20260507181013 62 303 0.0 0.0 0.00 0.00 0.00 48 1015.9
20260507180516 61 281 0.0 0.0 0.00 0.00 0.00 50 1016.0
20260507180010 61 264 0.0 0.0 0.00 0.00 0.00 53 1016.1
20260507175510 61 276 0.0 0.0 0.00 0.00 0.00 55 1016.0
20260507175011 60 266 0.0 0.0 0.00 0.00 0.00 53 1016.1
20260507174508 60 281 0.0 0.0 0.00 0.00 0.00 53 1016.2
20260507174008 60 261 0.0 0.0 0.00 0.00 0.00 55 1016.1
20260507173509 60 338 0.0 0.0 0.00 0.00 0.00 55 1016.1
20260507173005 60 304 0.0 0.0 0.00 0.00 0.00 54 1016.1
20260507172506 59 274 0.0 0.0 0.00 0.00 0.00 55 1016.1
20260507172005 59 284 0.0 0.0 0.00 0.00 0.00 55 1016.1
20260507171511 59 312 0.0 0.0 0.00 0.00 0.00 55 1016.1
20260507171005 59 288 0.0 0.0 0.00 0.00 0.00 59 1016.2
20260507170502 59 297 0.0 0.0 0.00 0.00 0.00 59 1016.1
20260507170002 58 229 0.0 0.0 0.00 0.00 0.00 61 1016.1
20260507165502 58 240 0.0 0.0 0.00 0.00 0.00 61 1016.2
20260507165001 58 245 0.0 0.0 0.00 0.00 0.00 63 1016.3
20260507164501 57 265 0.0 0.0 0.00 0.00 0.00 62 1016.4
20260507164104 57 267 0.0 0.0 0.00 0.00 0.00 63 1016.3
20260507163600 57 250 0.0 0.0 0.00 0.00 0.00 64 1016.4
20260507163100 57 254 0.0 0.0 0.00 0.00 0.00 65 1016.3
20260507162600 57 303 0.0 0.0 0.00 0.00 0.00 65 1016.4
20260507162101 56 279 0.0 0.0 0.00 0.00 0.00 65 1016.5
20260507161600 56 280 0.0 0.0 0.00 0.00 0.00 65 1016.5
20260507161059 56 281 0.0 0.0 0.00 0.00 0.00 66 1016.5
20260507160600 56 291 0.0 0.0 0.00 0.00 0.00 67 1016.6
20260507160059 55 304 0.0 0.0 0.00 0.00 0.00 67 1016.8
20260507155600 55 300 0.0 0.0 0.00 0.00 0.00 68 1017.0
20260507155058 55 292 0.0 0.0 0.00 0.00 0.00 68 1017.0
20260507154605 55 278 0.0 0.0 0.00 0.00 0.00 68 1017.1
20260507154058 55 296 0.0 0.0 0.00 0.00 0.00 68 1017.1
20260507153557 54 281 0.0 0.0 0.00 0.00 0.00 68 1017.1
20260507153101 54 267 0.0 0.0 0.00 0.00 0.00 68 1017.1
20260507152557 54 261 0.0 0.0 0.00 0.00 0.00 68 1017.0
20260507152057 54 263 0.0 0.0 0.00 0.00 0.00 68 1017.0
20260507151557 54 246 0.0 0.0 0.00 0.00 0.00 68 1017.1
20260507151056 54 295 0.0 0.0 0.00 0.00 0.00 69 1017.1
20260507150556 54 288 0.0 0.0 0.00 0.00 0.00 68 1017.2
20260507150057 54 258 0.0 0.0 0.00 0.00 0.00 68 1017.2
20260507145556 54 277 0.0 0.0 0.00 0.00 0.00 68 1017.2
20260507145056 53 247 0.0 0.0 0.00 0.00 0.00 68 1017.3
20260507144557 53 251 0.0 0.0 0.00 0.00 0.00 67 1017.3
20260507144056 53 290 0.0 0.0 0.00 0.00 0.00 68 1017.3
20260507143554 53 292 0.0 0.0 0.00 0.00 0.00 66 1017.3
20260507143055 53 267 0.0 0.0 0.00 0.00 0.00 66 1017.4
20260507142555 53 279 0.0 0.0 0.00 0.00 0.00 64 1017.3
20260507142054 53 276 0.0 0.0 0.00 0.00 0.00 64 1017.4
20260507141555 53 266 0.0 0.0 0.00 0.00 0.00 64 1017.3
20260507141054 53 284 0.0 0.0 0.00 0.00 0.00 64 1017.3
20260507140556 53 275 0.0 0.0 0.00 0.00 0.00 64 1017.2
20260507140054 53 224 0.0 0.0 0.00 0.00 0.00 63 1017.4
20260507135556 53 247 0.0 0.0 0.00 0.00 0.00 63 1017.2
20260507135053 53 277 0.0 0.0 0.00 0.00 0.00 62 1017.2
20260507134555 53 265 0.0 0.0 0.00 0.00 0.00 62 1017.1
20260507134052 53 265 0.0 0.0 0.00 0.00 0.00 62 1017.1
20260507133551 53 267 0.0 0.0 0.00 0.00 0.00 62 1016.9
20260507133055 53 269 0.0 0.0 0.00 0.00 0.00 61 1016.9
20260507132550 53 266 0.0 0.0 0.00 0.00 0.00 62 1016.8
20260507132053 53 282 0.0 0.0 0.00 0.00 0.00 61 1016.9
20260507131559 53 280 0.0 0.0 0.00 0.00 0.00 61 1016.8
20260507131049 53 254 0.0 0.0 0.00 0.00 0.00 61 1016.8
20260507130549 53 283 0.0 0.0 0.00 0.00 0.00 61 1016.6
20260507130104 53 261 0.0 0.0 0.00 0.00 0.00 61 1016.5
20260507125548 53 272 0.0 0.0 0.00 0.00 0.00 62 1016.6
20260507125046 53 279 0.0 0.0 0.00 0.00 0.00 62 1016.5
20260507124552 53 257 0.0 0.0 0.00 0.00 0.00 63 1016.5
20260507124046 53 290 0.0 0.0 0.00 0.00 0.00 63 1016.5
20260507123546 53 291 0.0 0.0 0.00 0.00 0.00 64 1016.5
20260507123044 54 259 0.0 0.0 0.00 0.00 0.00 64 1016.4
20260507122543 54 250 0.0 0.0 0.00 0.00 0.00 64 1016.4
20260507122043 54 287 0.0 0.0 0.00 0.00 0.00 65 1016.4
20260507122027 54 255 0.0 0.0 0.00 0.00 0.00 65 1016.4
20260507121041 54 186 0.0 0.0 0.00 0.00 0.00 65 1016.2
20260507120541 54 248 0.0 0.0 0.00 0.00 0.00 65 1016.2
20260507120043 54 285 0.0 0.0 0.00 0.00 0.00 65 1016.1
20260507115539 54 265 0.0 0.0 0.00 0.00 0.00 66 1016.0
20260507115037 54 270 0.0 0.0 0.00 0.00 0.00 66 1016.0
20260507114538 54 240 0.0 0.0 0.00 0.00 0.00 66 1015.8
20260507114037 54 282 0.0 0.0 0.00 0.00 0.00 66 1016.0
20260507113537 54 306 0.0 0.0 0.00 0.00 0.00 65 1016.0
20260507113037 54 270 0.0 0.0 0.00 0.00 0.00 65 1015.8
20260507112536 54 236 0.0 0.0 0.00 0.00 0.00 65 1015.9
20260507112036 54 277 0.0 0.0 0.00 0.00 0.00 65 1015.7
20260507111536 54 261 0.0 0.0 0.00 0.00 0.00 65 1015.8
20260507111035 54 301 0.0 0.0 0.00 0.00 0.00 65 1015.9
20260507110535 54 280 0.0 0.0 0.00 0.00 0.00 65 1015.8
20260507110035 55 262 0.0 0.0 0.00 0.00 0.00 65 1015.9
20260507105534 55 240 0.0 0.0 0.00 0.00 0.00 65 1015.8
20260507105036 55 281 0.0 0.0 0.00 0.00 0.00 65 1015.7
20260507104533 55 300 0.0 0.0 0.00 0.00 0.00 65 1015.7
20260507104033 55 213 0.0 0.0 0.00 0.00 0.00 65 1015.6
20260507103535 55 273 0.0 0.0 0.00 0.00 0.00 65 1015.6
20260507103034 55 245 0.0 0.0 0.00 0.00 0.00 65 1015.7
20260507102532 55 257 0.0 0.0 0.00 0.00 0.00 65 1015.5
20260507102031 55 232 0.0 0.0 0.00 0.00 0.00 64 1015.4
20260507101532 55 298 0.0 0.0 0.00 0.00 0.00 64 1015.6
20260507101030 55 267 0.0 0.0 0.00 0.00 0.00 64 1015.6
20260507100530 55 302 0.0 0.0 0.00 0.00 0.00 64 1015.7
20260507100035 56 267 0.0 0.0 0.00 0.00 0.00 64 1015.6
20260507095529 56 287 0.0 0.0 0.00 0.00 0.00 64 1015.5
20260507095029 56 314 0.0 0.0 0.00 0.00 0.00 64 1015.5
20260507094527 56 286 0.0 0.0 0.00 0.00 0.00 65 1015.6
20260507094027 56 322 0.0 0.0 0.00 0.00 0.00 65 1015.5
20260507093626 56 279 0.0 0.0 0.00 0.00 0.00 65 1015.6
20260507093025 56 239 0.0 0.0 0.00 0.00 0.00 65 1015.6
20260507092525 57 263 0.0 0.0 0.00 0.00 0.00 65 1015.7
20260507092024 57 298 0.0 0.0 0.00 0.00 0.00 65 1015.6
20260507091524 57 263 0.0 0.0 0.00 0.00 0.00 65 1015.7
20260507091024 57 263 0.0 0.0 0.00 0.00 0.00 66 1015.6
20260507090524 57 302 0.0 0.0 0.00 0.00 0.00 65 1015.7
20260507090023 57 260 0.0 0.0 0.00 0.00 0.00 66 1015.8
20260507085523 57 259 0.0 0.0 0.00 0.00 0.00 65 1015.8
20260507085023 57 270 0.0 0.0 0.00 0.00 0.00 65 1015.8
20260507084524 57 281 0.0 0.0 0.00 0.00 0.00 65 1015.9
20260507084022 57 257 0.0 0.0 0.00 0.00 0.00 65 1015.9
20260507083522 57 306 0.0 0.0 0.00 0.00 0.00 65 1015.8
20260507083023 57 313 0.0 0.0 0.00 0.00 0.00 65 1015.8
20260507082521 57 281 0.0 0.0 0.00 0.00 0.00 65 1015.7
20260507082019 58 265 0.0 0.0 0.00 0.00 0.00 65 1015.6
20260507081534 58 279 0.0 0.0 0.00 0.00 0.00 65 1015.5
20260507081019 58 300 0.0 0.0 0.00 0.00 0.00 66 1015.5
20260507080520 58 313 0.0 0.0 0.00 0.00 0.00 66 1015.3
20260507080016 58 266 0.0 0.0 0.00 0.00 0.00 66 1015.3
20260507075519 58 300 0.0 0.0 0.00 0.00 0.00 66 1015.3
20260507075015 58 228 0.0 0.0 0.00 0.00 0.00 66 1015.1
20260507074524 58 269 0.0 0.0 0.00 0.00 0.00 66 1015.2
20260507074014 58 309 0.0 0.0 0.00 0.00 0.00 66 1015.1
20260507073516 59 281 0.0 0.0 0.00 0.00 0.00 66 1015.0
20260507073013 59 296 0.0 0.0 0.00 0.00 0.00 66 1014.8
20260507072512 59 270 0.0 0.0 0.00 0.00 0.00 66 1014.9
20260507072012 59 228 0.0 0.0 0.00 0.00 0.00 66 1014.8
20260507071511 59 255 0.0 0.0 0.00 0.00 0.00 66 1014.9
20260507071012 59 292 0.0 0.0 0.00 0.00 0.00 66 1014.8
20260507070510 59 290 0.0 0.0 0.00 0.00 0.00 66 1015.1
20260507070017 59 286 0.0 0.0 0.00 0.00 0.00 66 1015.0
20260507065510 59 278 0.0 0.0 0.00 0.00 0.00 66 1015.2
20260507065009 59 260 0.0 0.0 0.00 0.00 0.00 66 1015.1
20260507064508 60 288 0.0 0.0 0.00 0.00 0.00 66 1015.1
20260507064008 60 330 0.0 0.0 0.00 0.00 0.00 66 1015.2
20260507063509 60 246 0.0 0.0 0.00 0.00 0.00 66 1015.3
20260507063014 60 289 0.0 0.0 0.00 0.00 0.00 66 1015.3
20260507062507 60 292 0.0 0.0 0.00 0.00 0.00 66 1015.2
20260507062007 60 290 0.0 0.0 0.00 0.00 0.00 66 1015.3
20260507061507 60 287 0.0 0.0 0.00 0.00 0.00 67 1015.3
20260507061006 60 268 0.0 0.0 0.00 0.00 0.00 67 1015.3
20260507060508 60 316 0.0 0.0 0.00 0.00 0.00 67 1015.3
20260507060006 61 319 0.0 0.0 0.00 0.00 0.00 67 1015.3
20260507055506 61 292 0.0 0.0 0.00 0.00 0.00 67 1015.3
20260507055005 61 302 0.0 0.0 0.00 0.00 0.00 67 1015.3
20260507054505 61 294 0.0 0.0 0.00 0.00 0.00 67 1015.2
20260507054008 61 269 0.0 0.0 0.00 0.00 0.00 67 1015.3
20260507053507 61 310 0.0 0.0 0.00 0.00 0.00 67 1015.2
20260507053005 61 250 0.0 0.0 0.00 0.00 0.00 67 1015.3
20260507052504 61 298 0.0 0.0 0.00 0.00 0.00 67 1015.0
20260507052006 61 273 0.0 0.0 0.00 0.00 0.00 67 1015.1
20260507051504 61 339 0.0 0.0 0.00 0.00 0.00 67 1015.0
20260507051008 61 294 0.0 0.0 0.00 0.00 0.00 67 1015.0
20260507050504 61 257 0.0 0.0 0.00 0.00 0.00 67 1015.0
20260507050013 61 97 0.0 0.0 0.00 0.00 0.00 67 1014.9
20260507045505 61 240 0.0 0.0 0.00 0.00 0.00 67 1014.9
20260507045004 61 351 0.0 0.0 0.00 0.00 0.00 67 1015.0
20260507044503 61 252 0.0 0.0 0.00 0.00 0.00 67 1015.0
20260507044003 62 289 0.0 0.0 0.00 0.00 0.00 67 1015.0
20260507043502 62 288 0.0 0.0 0.00 0.00 0.00 67 1015.2
20260507043003 62 277 0.0 0.0 0.00 0.00 0.00 67 1015.2
20260507042502 62 294 0.0 0.0 0.00 0.00 0.00 67 1015.1
20260507042002 62 291 0.0 0.0 0.00 0.00 0.00 67 1015.1
20260507041502 62 269 0.0 0.0 0.00 0.00 0.00 67 1015.1
20260507041002 62 286 0.0 0.0 0.00 0.00 0.00 67 1015.0
20260507040502 62 301 0.0 0.0 0.00 0.00 0.00 67 1015.0
20260507040005 62 294 0.0 0.0 0.00 0.00 0.00 66 1014.7
20260507035502 62 328 0.0 0.0 0.00 0.00 0.00 66 1014.7
20260507035001 62 284 0.0 0.0 0.00 0.00 0.00 66 1014.9
20260507034500 62 275 0.0 0.0 0.00 0.00 0.00 66 1014.9
20260507034001 63 290 0.0 0.0 0.00 0.00 0.00 66 1015.0
20260507033600 63 284 0.0 0.0 0.00 0.00 0.00 65 1015.1
20260507033106 63 292 0.0 0.0 0.00 0.00 0.00 64 1015.0
20260507032602 63 288 0.0 0.0 0.00 0.00 0.00 63 1015.2
20260507032100 64 282 0.0 0.0 0.00 0.00 0.00 61 1015.1
20260507031609 64 265 0.0 0.0 0.00 0.00 0.00 60 1015.1
20260507031100 64 262 0.0 0.0 0.00 0.00 0.00 59 1015.2
20260507030559 65 275 0.0 0.0 0.00 0.00 0.00 59 1015.2
20260507030101 65 256 0.0 0.0 0.00 0.00 0.00 58 1015.1
20260507025602 65 316 0.0 0.0 0.00 0.00 0.00 57 1015.1
20260507025059 65 296 0.0 0.0 0.00 0.00 0.00 56 1015.2
20260507024559 66 275 0.0 0.0 0.00 0.00 0.00 56 1015.1
20260507024059 66 309 0.0 0.0 0.00 0.00 0.00 56 1015.2
20260507023558 66 296 0.0 0.0 0.00 0.00 0.00 55 1015.3
20260507023106 66 258 0.0 0.0 0.00 0.00 0.00 56 1015.4
20260507022558 66 294 0.0 0.0 0.00 0.00 0.00 56 1015.3
20260507022058 66 279 0.0 0.0 0.00 0.00 0.00 55 1015.3
20260507021601 66 298 0.0 0.0 0.00 0.00 0.00 56 1015.2
20260507021058 66 279 0.0 0.0 0.00 0.00 0.00 56 1015.3
20260507020557 67 264 0.0 0.0 0.00 0.00 0.00 56 1015.0
20260507020100 67 296 0.0 0.0 0.00 0.00 0.00 55 1015.3
20260507015557 66 273 0.0 0.0 0.00 0.00 0.00 57 1015.2
20260507015056 66 301 0.0 0.0 0.00 0.00 0.00 56 1015.2
20260507014604 66 302 0.0 0.0 0.00 0.00 0.00 56 1015.1
20260507014057 66 261 0.0 0.0 0.00 0.00 0.00 56 1014.9
20260507013556 66 272 0.0 0.0 0.00 0.00 0.00 56 1015.0
20260507013055 66 310 0.0 0.0 0.00 0.00 0.00 56 1014.9
20260507012555 66 300 0.0 0.0 0.00 0.00 0.00 56 1014.9
20260507012100 66 290 0.0 0.0 0.00 0.00 0.00 56 1015.0
20260507011555 66 279 0.0 0.0 0.00 0.00 0.00 57 1015.0
20260507011059 66 275 0.0 0.0 0.00 0.00 0.00 56 1014.8
20260507010555 66 237 0.0 0.0 0.00 0.00 0.00 56 1015.0
20260507010059 66 256 0.0 0.0 0.00 0.00 0.00 57 1015.1
20260507005555 66 292 0.0 0.0 0.00 0.00 0.00 57 1015.0
20260507005054 66 281 0.0 0.0 0.00 0.00 0.00 58 1015.0
20260507004554 66 270 0.0 0.0 0.00 0.00 0.00 57 1014.8
20260507004054 66 264 0.0 0.0 0.00 0.00 0.00 58 1014.8
20260507003554 66 319 0.0 0.0 0.00 0.00 0.00 58 1014.8
20260507003054 66 303 0.0 0.0 0.00 0.00 0.00 58 1014.7
20260507002553 67 256 0.0 0.0 0.00 0.00 0.00 57 1014.8
20260507002053 67 271 0.0 0.0 0.00 0.00 0.00 57 1014.6
20260507001601 67 309 0.0 0.0 0.00 0.00 0.00 57 1014.6
20260507001052 67 303 0.0 0.0 0.00 0.00 0.00 56 1014.6
20260507000553 68 292 0.0 0.0 0.00 0.00 0.00 55 1014.6
20260507000054 68 294 0.0 0.0 0.00 0.00 0.00 56 1014.5
20260506235555 68 223 0.0 0.0 0.00 0.00 0.00 55 1014.5
20260506235055 68 288 0.0 0.0 0.00 0.00 0.00 55 1014.5
20260506234553 68 289 0.0 0.0 0.00 0.00 0.00 55 1014.5
20260506234052 68 278 0.0 0.0 0.00 0.00 0.00 55 1014.4
20260506233551 68 331 0.0 0.0 0.00 0.00 0.00 55 1014.3
20260506233109 69 287 0.0 0.0 0.00 0.00 0.00 54 1014.4
20260506232551 69 284 0.0 0.0 0.00 0.00 0.00 55 1014.4
20260506232051 69 325 0.0 0.0 0.00 0.00 0.00 54 1014.2
20260506231551 69 286 0.0 0.0 0.00 0.00 0.00 54 1014.2
20260506231051 69 315 0.0 0.0 0.00 0.00 0.00 53 1014.2
20260506230550 69 257 0.0 0.0 0.00 0.00 0.00 52 1014.2
20260506230051 70 271 0.0 0.0 0.00 0.00 0.00 51 1014.2
20260506225650 70 306 0.0 0.0 0.00 0.00 0.00 51 1014.1
20260506225050 71 313 0.0 0.0 0.00 0.00 0.00 51 1014.2
20260506224550 70 267 0.0 0.0 0.00 0.00 0.00 52 1014.3
20260506224052 70 290 0.0 0.0 0.00 0.00 0.00 51 1014.3
20260506223550 70 282 0.0 0.0 0.00 0.00 0.00 51 1014.3
20260506223048 71 255 0.0 0.0 0.00 0.00 0.00 50 1014.5
20260506222548 71 279 0.0 0.0 0.00 0.00 0.00 51 1014.4
20260506222048 71 259 0.0 0.0 0.00 0.00 0.00 51 1014.6
20260506221547 71 300 0.0 0.0 0.00 0.00 0.00 52 1014.7
20260506221046 71 297 0.0 0.0 0.00 0.00 0.00 51 1014.7
20260506220546 70 252 0.0 0.0 0.00 0.00 0.00 54 1015.0
20260506220046 69 271 0.0 0.0 0.00 0.00 0.00 56 1015.1
20260506215549 69 292 0.0 0.0 0.00 0.00 0.00 55 1015.2
20260506215045 68 237 0.0 0.0 0.00 0.00 0.00 55 1015.2
20260506214546 68 240 0.0 0.0 0.00 0.00 0.00 55 1015.2
20260506214046 68 284 0.0 0.0 0.00 0.00 0.00 54 1015.4
20260506213544 69 278 0.0 0.0 0.00 0.00 0.00 53 1015.3
20260506213058 69 330 0.0 0.0 0.00 0.00 0.00 52 1015.3
20260506212544 69 288 0.0 0.0 0.00 0.00 0.00 52 1015.3
20260506212045 69 277 0.0 0.0 0.00 0.00 0.00 52 1015.2
20260506211544 69 291 0.0 0.0 0.00 0.00 0.00 53 1015.4
20260506211044 70 301 0.0 0.0 0.00 0.00 0.00 51 1015.4
20260506210544 70 269 0.0 0.0 0.00 0.00 0.00 50 1015.5
20260506210043 70 259 0.0 0.0 0.00 0.00 0.00 52 1015.5
20260506205544 70 269 0.0 0.0 0.00 0.00 0.00 55 1015.7
20260506205043 70 319 0.0 0.0 0.00 0.00 0.00 52 1015.6
20260506204548 70 232 0.0 0.0 0.00 0.00 0.00 53 1015.7
20260506204041 70 269 0.0 0.0 0.00 0.00 0.00 54 1015.8
20260506203540 70 327 0.0 0.0 0.00 0.00 0.00 54 1015.8
20260506203039 70 304 0.0 0.0 0.00 0.00 0.00 55 1016.0
20260506202541 69 269 0.0 0.0 0.00 0.00 0.00 56 1016.0
20260506202037 69 234 0.0 0.0 0.00 0.00 0.00 55 1016.0
20260506201537 69 248 0.0 0.0 0.00 0.00 0.00 55 1015.8
20260506201036 69 255 0.0 0.0 0.00 0.00 0.00 55 1015.9
20260506200535 69 258 0.0 0.0 0.00 0.00 0.00 56 1015.8
20260506200035 69 272 0.0 0.0 0.00 0.00 0.00 57 1015.7
20260506195534 68 298 0.0 0.0 0.00 0.00 0.00 57 1015.7
20260506195037 68 257 0.0 0.0 0.00 0.00 0.00 57 1015.4
20260506194537 68 291 0.0 0.0 0.00 0.00 0.00 56 1015.5
20260506194031 68 286 0.0 0.0 0.00 0.00 0.00 58 1015.4
20260506193530 68 283 0.0 0.0 0.00 0.00 0.00 58 1015.5
20260506193032 67 286 0.0 0.0 0.00 0.00 0.00 59 1015.2
20260506192531 67 269 0.0 0.0 0.00 0.00 0.00 60 1015.1